Terminal Aerodrome Forecast
Issued by NWS Jackson, MS

Home | Current Version | Previous Version | Text Only | Print | Product List | Glossary On
Versions: 1 2 3 4 5 6 7 8 9 10 11 12 13 14 15 16 17 18 19 20
000
FTUS44 KJAN 040500
TAFGLH
TAF
KGLH 040522Z 0406/0506 19010KT 4SM BR OVC007
     FM041100 20009KT 2SM BR OVC003
     FM041400 20010KT 4SM -RA BR OVC007
     FM041600 29013G20KT 1 1/2SM -RA BR OVC003
     FM042200 01022KT 2SM -RA BR OVC007
     FM050000 36025G31KT 4SM -RA BR OVC007
     FM050200 36028G34KT 4SM -RA BR OVC015=

USA.gov is the U.S. government's official web portal to all federal, state and local government web resources and services.